                ,  1.160,  1.308,  1.456,  1.604,  1.751,  1.899,  2.047,  2.194,  2.342,  2.490,  2.638,  2.785,  2.933,  3.081,  3.229,  3.376,  3.524,  3.672,  3.819,  3.967,  4.115,  4.263,  4.410,  4.558,  4.706,  4.853,  5.001,  5.149,  5.297,  5.444
2006/04/01 00:00,    3.2,    5.6,  999.0,    8.1,    4.8,    5.0,    6.2,  999.0,    9.3,    9.5,  999.0,  999.0,  999.0,  999.0,  999.0,  999.0,  999.0,  999.0,  999.0,  999.0,  999.0,  999.0,  999.0,   -0.2,  999.0,  999.0,  999.0,  999.0,  999.0,  999.0
2006/04/01 00:10,    3.6,    5.9,    5.6,    7.4,    8.4,    7.6,    8.8,    9.9,    8.6,    8.1,  999.0,  999.0,  999.0,  999.0,  999.0,  999.0,  999.0,  999.0,  999.0,  999.0,  999.0,  999.0,  999.0,    1.1,  999.0,  999.0,  999.0,  999.0,  999.0,  999.0
2006/04/01 00:20,    2.5,    2.7,    6.5,    6.7,    7.5,    8.2,    8.5,    8.8,    9.1,    9.1,  999.0,  999.0,  999.0,  999.0,   -0.2,    1.8,  999.0,  999.0,  999.0,  999.0,  999.0,  999.0,  999.0,    0.1,   -0.1,  999.0,  999.0,  999.0,  999.0,  999.0
2006/04/01 00:30,    3.0,    4.2,    4.2,    6.7,    6.4,    7.6,    7.3,    8.4,  999.0,  999.0,  999.0,  999.0,  999.0,  999.0,  999.0,  999.0,  999.0,  999.0,  999.0,    0.2,  999.0,  999.0,  999.0,  999.0,    0.4,  999.0,  999.0,  999.0,  999.0,  999.0
2006/04/01 00:40,    4.3,    4.4,    5.1,    6.9,    6.5,    7.0,    8.2,    7.3,   13.6,  999.0,  999.0,  999.0,  999.0,  999.0,  999.0,   -0.6,  999.0,  999.0,  999.0,  999.0,  999.0,  999.0,  999.0,  999.0,  999.0,  999.0,  999.0,  999.0,  999.0,  999.0
2006/04/01 00:50,    3.0,    3.8,    2.4,    6.4,    9.1,   10.4,    9.4,    9.6,   11.4,   11.1,    8.5,  999.0,  999.0,  999.0,    2.2,  999.0,  999.0,  999.0,  999.0,  999.0,  999.0,  999.0,  999.0,  999.0,  999.0,  999.0,  999.0,  999.0,  999.0,  999.0
2006/04/01 01:00,    2.4,    7.3,    5.6,    1.9,    4.4,    8.0,   10.2,   11.6,   11.9,    8.9,    8.5,  999.0,    6.3,    7.4,   -0.1,  999.0,  999.0,  999.0,  999.0,    0.6,  999.0,  999.0,  999.0,   -0.1,    0.5,  999.0,  999.0,  999.0,  999.0,  999.0
2006/04/01 01:10,    4.0,    4.8,    2.7,    5.5,    5.8,    5.8,    8.2,    9.4,    7.5,    7.1,    7.3,  999.0,    7.5,    6.9,    1.6,  999.0,  999.0,  999.0,  999.0,    0.0,  999.0,  999.0,  999.0,   -0.3,   -0.8,  999.0,  999.0,  999.0,  999.0,  999.0
2006/04/01 01:20,    4.4,    2.9,    5.0,    6.5,    5.5,    6.9,    7.7,    8.0,    6.9,    6.1,    8.6,  999.0,  999.0,    5.9,  999.0,  999.0,  999.0,  999.0,  999.0,   -1.5,  999.0,  999.0,  999.0,   -0.3,   -1.1,  999.0,  999.0,  999.0,  999.0,  999.0
2006/04/01 01:30,    3.6,    4.9,    5.9,    6.3,    7.3,    7.8,    7.5,    7.6,    7.6,  999.0,    9.1,    6.0,  999.0,  999.0,  999.0,  999.0,  999.0,  999.0,  999.0,  999.0,  999.0,  999.0,  999.0,  999.0,  999.0,  999.0,  999.0,  999.0,  999.0,  999.0
2006/04/01 01:40,    4.7,    4.9,    5.1,    7.1,    7.7,    7.4,    7.1,    8.2,  999.0,  999.0,  999.0,    9.1,   10.4,  999.0,  999.0,    0.6,  999.0,  999.0,  999.0,  999.0,  999.0,  999.0,  999.0,    0.2,  999.0,  999.0,  999.0,  999.0,  999.0,  999.0
2006/04/01 01:50,    5.1,    6.0,    5.8,    7.7,    7.7,    9.5,  999.0,    9.9,    7.6,  999.0,  999.0,  999.0,    8.3,  999.0,    2.7,    0.0,  999.0,  999.0,    1.3,    0.5,  999.0,  999.0,  999.0,  999.0,   -0.3,  999.0,  999.0,  999.0,  999.0,  999.0
2006/04/01 02:00,    4.8,    6.3,    6.0,    5.9,    7.4,  999.0,    6.6,    7.1,  999.0,  999.0,  999.0,    6.2,  999.0,  999.0,    1.7,    2.3,  999.0,  999.0,    1.1,   -0.3,  999.0,  999.0,    0.2,  999.0,   -0.2,  999.0,  999.0,  999.0,  999.0,  999.0
2006/04/01 02:10,    4.2,    4.4,    5.5,    5.7,    5.8,    6.8,    4.7,    9.1,    9.7,    9.6,  999.0,    8.6,  999.0,  999.0,    6.5,    1.2,  999.0,  999.0,  999.0,    0.2,  999.0,  999.0,  999.0,  999.0,  999.0,  999.0,  999.0,  999.0,  999.0,  999.0
2006/04/01 02:20,    3.6,    5.7,    5.9,    5.9,    6.3,    8.7,    8.9,    8.5,    8.7,  999.0,  999.0,  999.0,  999.0,    4.6,    4.7,    0.1,  999.0,  999.0,  999.0,    0.6,    0.9,  999.0,    6.0,    1.1,    1.2,  999.0,  999.0,  999.0,  999.0,  999.0
2006/04/01 02:30,    5.6,    3.6,    6.1,    5.4,    9.5,    9.5,   11.1,    8.5,    8.9,  999.0,    8.3,  999.0,  999.0,    8.1,   -0.6,    3.5,  999.0,    4.9,    0.4,    1.4,    6.8,  999.0,  999.0,    2.9,    1.0,  999.0,  999.0,  999.0,  999.0,  999.0
2006/04/01 02:40,    4.0,    4.4,    5.1,    6.4,    8.5,    8.9,    9.3,  999.0,  999.0,  999.0,    9.0,  999.0,  999.0,    8.0,  999.0,  999.0,  999.0,  999.0,    1.2,    5.7,  999.0,  999.0,    6.3,    0.0,    1.0,  999.0,  999.0,  999.0,  999.0,    3.1
2006/04/01 02:50,    4.1,    4.4,    5.0,    5.9,    8.4,    7.9,    8.9,    9.3,    6.0,    9.0,    9.1,  999.0,  999.0,  999.0,  999.0,  999.0,    5.6,  999.0,  999.0,    0.8,    7.6,  999.0,  999.0,  999.0,    2.0,  999.0,    5.4,    5.2,    3.1,    5.4
2006/04/01 03:00,    3.9,    5.4,    6.4,    7.3,    9.4,    9.3,    9.3,    9.5,    7.7,    9.7,   10.1,    8.1,    6.0,    7.2,    2.1,    6.6,    7.9,  999.0,  999.0,  999.0,    5.8,    5.9,    8.1,  999.0,    2.5,  999.0,  999.0,  999.0,  999.0,    6.9
2006/04/01 03:10,    4.4,    3.2,    4.8,    5.4,    7.3,    8.9,    8.8,    9.4,    8.9,    9.4,    9.5,  999.0,  999.0,  999.0,  999.0,  999.0,    7.8,    8.0,  999.0,  999.0,  999.0,  999.0,  999.0,    0.6,  999.0,  999.0,  999.0,  999.0,  999.0,  999.0
2006/04/01 03:20,    4.3,    5.2,    5.0,  999.0,    7.0,    8.6,    9.1,    8.8,    9.4,    7.3,    8.1,    8.3,  999.0,  999.0,  999.0,    5.7,    7.7,  999.0,  999.0,    8.7,    9.5,  999.0,  999.0,    2.9,    1.0,  999.0,  999.0,  999.0,  999.0,    9.5
2006/04/01 03:30,    5.3,    5.0,    6.7,    6.6,    9.0,    9.2,    9.1,    8.1,  999.0,  999.0,    8.2,    8.7,  999.0,    8.7,  999.0,    0.8,  999.0,  999.0,    4.3,  999.0,  999.0,    8.2,  999.0,  999.0,    3.3,    3.9,    3.1,  999.0,    4.6,    5.6
2006/04/01 03:40,    4.2,    5.3,    7.2,    7.6,    7.6,    7.5,    7.9,    5.7,    8.2,    7.8,    7.6,  999.0,  999.0,    1.1,    0.9,   -0.4,  999.0,  999.0,  999.0,  999.0,    5.2,    7.5,    7.7,  999.0,    1.3,    5.8,    5.2,  999.0,  999.0,  999.0
2006/04/01 03:50,    4.5,    2.8,    6.1,    5.9,    7.2,    8.5,    7.6,    9.1,    8.9,    8.6,    8.2,    9.0,    7.7,    4.0,    2.4,    0.5,  999.0,  999.0,    1.2,    1.6,    0.5,    8.0,    7.8,    0.2,    0.4,  999.0,  999.0,    6.2,  999.0,  999.0
2006/04/01 04:00,    5.2,    5.1,    6.6,    6.7,    7.8,    8.3,    8.8,    9.2,    9.4,    9.8,    9.7,    8.7,    8.0,  999.0,    0.2,  999.0,  999.0,   -1.1,    1.8,    3.3,  999.0,  999.0,  999.0,    0.9,    0.5,  999.0,  999.0,  999.0,  999.0,  999.0
2006/04/01 04:10,    5.7,  999.0,    7.5,    8.4,    9.7,   10.4,    9.5,    9.4,    9.2,    9.7,    9.9,    8.5,  999.0,    1.1,  999.0,   -0.3,  999.0,    0.1,    5.0,    0.4,  999.0,  999.0,  999.0,   -0.0,    0.2,  999.0,  999.0,  999.0,  999.0,  999.0
2006/04/01 04:20,    5.9,    8.1,    8.5,    8.2,    7.9,    9.3,    9.5,    9.4,    8.4,    9.0,    9.4,    9.9,    4.9,    0.5,    0.9,  999.0,  999.0,    2.2,    2.0,    0.8,    0.8,    4.0,    4.5,    0.7,    0.7,  999.0,    4.6,    4.1,  999.0,  999.0
2006/04/01 04:30,    7.5,    5.5,    7.4,    8.1,    9.3,    9.5,    9.7,    9.1,    9.1,    8.4,    8.6,    9.0,    6.5,    3.4,    0.0,   -1.0,  999.0,    1.1,  999.0,    1.1,  999.0,    1.9,    2.6,   -0.1,    0.1,  999.0,    1.9,  999.0,  999.0,    2.4
2006/04/01 04:40,    5.3,    6.6,  999.0,    8.6,    8.6,    9.4,    6.8,    8.7,    8.6,    9.9,   10.2,    9.0,    6.5,    8.3,    0.0,   -1.2,  999.0,   -0.2,    1.0,    3.2,    2.5,  999.0,    2.5,    0.9,   -0.4,  999.0,    4.2,  999.0,  999.0,    3.5
2006/04/01 04:50,  999.0,    6.3,    7.1,    7.7,    8.2,    8.8,    7.4,    8.5,    7.9,    8.6,    9.4,    9.2,    7.9,    7.8,    3.4,   -0.5,  999.0,    1.2,    1.2,    0.4,   -0.6,  999.0,  999.0,    0.1,    0.5,  999.0,    3.3,  999.0,    2.2,    3.7
2006/04/01 05:00,    3.7,    2.7,    3.2,    6.9,    7.8,    9.6,    8.6,    8.7,    8.7,    8.6,    8.8,    8.6,    8.8,    8.8,    7.3,    0.3,  999.0,    6.1,    3.5,    0.5,  999.0,  999.0,  999.0,  999.0,    2.9,    4.0,    4.7,    4.6,    6.5,    4.5
2006/04/01 05:10,    3.7,    3.3,    3.9,    4.6,    5.8,    8.0,    8.3,    8.3,    8.6,    9.4,   10.6,   10.1,    9.9,    8.5,  999.0,  999.0,  999.0,    1.8,  999.0,  999.0,  999.0,  999.0,  999.0,    1.9,    4.6,  999.0,  999.0,    5.3,    5.9,    6.8
2006/04/01 05:20,    3.7,    3.4,    3.0,    5.2,    7.4,    8.7,    9.1,    8.2,    8.6,    8.3,    9.6,    9.9,    8.4,    8.4,    4.6,  999.0,  999.0,    0.5,    0.4,   -0.7,  999.0,  999.0,  999.0,  999.0,    0.5,  999.0,  999.0,    2.6,  999.0,  999.0
2006/04/01 05:30,    5.5,    1.8,    3.4,    7.0,    7.3,    7.0,    7.8,    6.8,    7.7,    8.3,    8.9,    7.6,    8.8,  999.0,    0.9,    2.1,  999.0,  999.0,  999.0,    0.8,  999.0,  999.0,  999.0,    0.6,    1.2,  999.0,  999.0,  999.0,  999.0,  999.0
2006/04/01 05:40,    1.3,    3.0,    2.3,    3.9,    6.9,    7.5,    6.9,    7.2,    8.6,    8.7,  999.0,    8.8,  999.0,  999.0,  999.0,  999.0,  999.0,  999.0,  999.0,  999.0,  999.0,  999.0,    4.7,  999.0,    1.6,  999.0,  999.0,  999.0,  999.0,    6.6
2006/04/01 05:50,    3.0,    0.3,    4.9,    4.0,  999.0,    6.2,  999.0,    8.2,    9.2,  999.0,  999.0,  999.0,   10.1,   10.6,  999.0,  999.0,  999.0,  999.0,    0.2,   -1.1,  999.0,  999.0,  999.0,    1.4,    0.9,    5.6,    6.6,    5.3,    5.4,    7.5
2006/04/01 06:00,  999.0,    4.5,    5.8,    6.4,    5.7,    5.1,    8.1,    9.1,  999.0,  999.0,  999.0,  999.0,  999.0,  999.0,    4.7,  999.0,  999.0,  999.0,    3.3,  999.0,  999.0,  999.0,  999.0,    1.9,  999.0,  999.0,  999.0,  999.0,  999.0,  999.0
2006/04/01 06:10,    2.0,    3.4,    5.3,    5.8,    6.9,    7.7,    6.8,    9.2,  999.0,  999.0,  999.0,  999.0,  999.0,  999.0,  999.0,   -0.7,  999.0,  999.0,  999.0,  999.0,  999.0,  999.0,  999.0,  999.0,    0.7,  999.0,  999.0,  999.0,  999.0,  999.0
2006/04/01 06:20,    2.6,    3.4,    4.1,    4.8,    7.5,    6.7,    7.8,  999.0,  999.0,  999.0,  999.0,  999.0,  999.0,  999.0,    7.1,  999.0,  999.0,  999.0,  999.0,  999.0,  999.0,    6.5,  999.0,    1.2,    0.4,    2.3,  999.0,  999.0,  999.0,  999.0
2006/04/01 06:30,    2.8,  999.0,    4.6,    6.7,    6.0,    6.5,    7.8,    9.3,    9.5,  999.0,   10.0,  999.0,  999.0,  999.0,  999.0,  999.0,  999.0,  999.0,  999.0,  999.0,  999.0,  999.0,  999.0,    1.9,  999.0,  999.0,  999.0,  999.0,  999.0,  999.0
2006/04/01 06:40,    3.0,    4.2,    5.4,    6.8,    6.9,    8.1,    7.9,    9.2,  999.0,   10.5,   10.1,  999.0,  999.0,  999.0,  999.0,    7.0,    9.7,  999.0,  999.0,  999.0,  999.0,  999.0,  999.0,    1.4,    0.9,  999.0,  999.0,  999.0,  999.0,  999.0
2006/04/01 06:50,    3.9,    2.3,    3.7,    4.7,    6.2,    7.2,    6.8,    9.3,  999.0,    8.7,  999.0,  999.0,  999.0,    6.8,    8.5,    7.1,    9.1,  999.0,  999.0,    2.7,  999.0,  999.0,  999.0,    1.4,    1.2,    3.1,  999.0,  999.0,  999.0,  999.0
2006/04/01 07:00,    2.6,  999.0,    2.7,    3.9,    6.2,    7.0,    8.6,    9.5,   10.0,   10.6,    9.2,  999.0,  999.0,  999.0,    9.1,    6.7,    8.9,    9.3,  999.0,  999.0,    6.9,  999.0,  999.0,    0.8,  999.0,  999.0,    2.9,  999.0,  999.0,  999.0
2006/04/01 07:10,    2.4,    0.9,  999.0,    4.0,    4.9,    7.3,    8.9,    9.4,   10.1,   10.4,   10.1,  999.0,  999.0,  999.0,   10.2,  999.0,  999.0,  999.0,    9.6,  999.0,  999.0,    5.8,  999.0,  999.0,    1.8,  999.0,  999.0,  999.0,  999.0,  999.0
2006/04/01 07:20,    1.6,    0.9,    3.1,    4.6,    5.4,    7.1,    7.7,    8.5,    9.5,   10.3,    8.5,    8.4,  999.0,    8.1,  999.0,  999.0,  999.0,  999.0,    8.6,  999.0,  999.0,  999.0,  999.0,  999.0,  999.0,  999.0,  999.0,  999.0,    6.0,  999.0
2006/04/01 07:30,  999.0,   -0.2,    2.0,    2.7,    6.1,    8.6,    8.5,    8.7,    8.9,    8.2,    8.5,    8.0,  999.0,  999.0,    7.4,    7.0,  999.0,  999.0,  999.0,  999.0,  999.0,  999.0,  999.0,  999.0,   -0.1,  999.0,  999.0,  999.0,  999.0,  999.0
2006/04/01 07:40,  999.0,   -1.1,    0.9,    5.1,    6.7,    6.5,    9.1,   10.1,    9.8,    9.2,    8.9,  999.0,    7.2,  999.0,  999.0,    8.0,    6.8,  999.0,  999.0,  999.0,  999.0,  999.0,    6.2,  999.0,  999.0,  999.0,    4.6,  999.0,  999.0,  999.0
2006/04/01 07:50,    1.3,  999.0,    1.9,    6.3,    6.7,    7.6,    7.9,    8.2,    9.3,    9.9,    9.1,  999.0,  999.0,  999.0,  999.0,  999.0,    6.8,    7.3,  999.0,  999.0,  999.0,  999.0,  999.0,  999.0,    1.4,  999.0,  999.0,  999.0,  999.0,  999.0
2006/04/01 08:00,    3.0,    2.6,    2.9,    5.6,    7.2,    7.4,    7.2,    8.3,    9.2,   10.3,    9.1,    8.5,  999.0,  999.0,  999.0,  999.0,    7.0,    7.3,  999.0,  999.0,  999.0,  999.0,  999.0,    1.7,    0.3,  999.0,  999.0,  999.0,  999.0,  999.0
2006/04/01 08:10,    1.8,  999.0,    3.3,    5.6,    6.8,    7.6,    8.5,    9.4,   10.2,   10.4,    8.7,    7.8,    8.9,    7.5,  999.0,    4.3,    8.4,  999.0,  999.0,  999.0,  999.0,  999.0,  999.0,  999.0,  999.0,  999.0,  999.0,  999.0,  999.0,  999.0
2006/04/01 08:20,    1.3,    0.9,    0.6,    5.8,    5.7,    7.7,    8.6,   10.0,    9.8,   10.1,    9.4,  999.0,    8.3,  999.0,  999.0,  999.0,  999.0,  999.0,  999.0,  999.0,  999.0,  999.0,  999.0,  999.0,  999.0,  999.0,  999.0,  999.0,  999.0,  999.0
2006/04/01 08:30,    2.8,  999.0,    3.1,    4.0,    6.4,    7.8,    8.6,    9.9,   10.3,   10.3,    9.8,    9.8,    8.7,    8.3,    7.8,    7.7,  999.0,    7.7,  999.0,  999.0,  999.0,  999.0,  999.0,  999.0,  999.0,  999.0,  999.0,  999.0,  999.0,  999.0
2006/04/01 08:40,    2.0,    2.4,    1.9,    4.8,    5.3,    7.4,    8.7,    9.7,   10.5,   10.4,    9.9,    9.2,  999.0,    7.0,    7.4,  999.0,  999.0,  999.0,  999.0,  999.0,  999.0,  999.0,  999.0,  999.0,  999.0,  999.0,    5.4,  999.0,  999.0,  999.0
2006/04/01 08:50,  999.0,  999.0,    0.1,    5.9,    5.6,    7.5,    8.5,    9.2,   10.6,    9.8,   10.4,    9.0,  999.0,  999.0,    6.3,  999.0,  999.0,  999.0,  999.0,  999.0,  999.0,  999.0,  999.0,  999.0,  999.0,  999.0,  999.0,  999.0,  999.0,  999.0
2006/04/01 09:00,    3.2,    3.7,    3.7,    3.0,    6.3,    7.3,    7.8,    9.0,    9.7,   10.0,    9.9,  999.0,  999.0,  999.0,    4.9,    7.9,  999.0,  999.0,  999.0,  999.0,  999.0,  999.0,  999.0,    1.3,    1.1,  999.0,    7.8,  999.0,  999.0,  999.0
2006/04/01 09:10,    1.2,    1.5,    4.2,    3.7,    6.1,    8.4,    8.0,   11.2,   10.6,    9.3,   11.9,    9.7,  999.0,    8.9,    8.0,  999.0,  999.0,  999.0,  999.0,  999.0,  999.0,  999.0,  999.0,  999.0,    0.9,  999.0,  999.0,  999.0,  999.0,  999.0
2006/04/01 09:20,   -3.2,    2.5,    4.0,    5.1,    6.5,    7.4,    8.2,    8.7,    8.5,    9.6,  999.0,  999.0,  999.0,  999.0,  999.0,  999.0,  999.0,  999.0,  999.0,  999.0,  999.0,  999.0,  999.0,    0.6,    0.3,  999.0,  999.0,  999.0,  999.0,  999.0
2006/04/01 09:30,    3.4,    4.1,    4.0,    5.2,    6.5,    7.3,    9.8,    7.6,    5.4,    9.8,  999.0,  999.0,    7.8,    4.6,    9.2,  999.0,  999.0,  999.0,  999.0,  999.0,  999.0,  999.0,  999.0,  999.0,    0.1,  999.0,  999.0,  999.0,  999.0,  999.0
2006/04/01 09:40,    1.9,    1.2,    4.2,    5.5,    6.7,    6.7,    8.4,    8.8,    9.5,    7.1,    6.5,  999.0,  999.0,  999.0,  999.0,  999.0,  999.0,  999.0,  999.0,  999.0,  999.0,  999.0,  999.0,  999.0,  999.0,  999.0,  999.0,  999.0,  999.0,  999.0
2006/04/01 09:50,    1.5,  999.0,    4.8,    4.8,    5.6,    6.1,    7.4,    9.1,    8.1,    8.6,   11.2,  999.0,    7.6,  999.0,  999.0,    8.3,  999.0,  999.0,  999.0,  999.0,  999.0,  999.0,  999.0,    1.0,   -0.1,  999.0,    3.4,  999.0,  999.0,  999.0
2006/04/01 10:00,    2.1,    2.4,    4.2,    5.8,    5.5,    6.5,    7.0,    7.7,    9.5,    9.4,  999.0,    8.4,    7.4,  999.0,  999.0,  999.0,  999.0,  999.0,  999.0,  999.0,  999.0,  999.0,  999.0,    0.7,   -0.3,  999.0,  999.0,  999.0,  999.0,  999.0
2006/04/01 10:10,    1.6,    3.5,    4.4,    4.9,    6.3,    7.5,    7.2,    7.4,    6.9,    9.1,    8.4,  999.0,  999.0,  999.0,  999.0,  999.0,  999.0,  999.0,  999.0,  999.0,  999.0,  999.0,  999.0,    0.3,  999.0,  999.0,  999.0,  999.0,  999.0,  999.0
2006/04/01 10:20,    3.7,    4.7,    3.9,    4.8,    7.4,    7.2,    7.9,    6.9,    8.9,    8.2,    9.8,    9.1,    6.3,  999.0,    1.8,    0.7,  999.0,  999.0,  999.0,  999.0,  999.0,  999.0,  999.0,    0.1,   -0.1,  999.0,  999.0,  999.0,  999.0,  999.0
2006/04/01 10:30,    3.7,    1.1,    6.1,    4.7,    3.1,    2.9,    6.1,    8.5,    8.9,    8.3,    8.6,    8.0,    6.3,    2.0,    0.2,    3.9,  999.0,  999.0,  999.0,  999.0,  999.0,  999.0,  999.0,   -1.2,    0.4,  999.0,  999.0,  999.0,  999.0,  999.0
2006/04/01 10:40,    3.9,    2.9,    6.2,    2.0,    4.6,    5.1,    8.3,    6.4,    7.4,    6.6,    7.2,    6.9,    5.7,    2.8,  999.0,    0.1,  999.0,  999.0,    0.4,  999.0,  999.0,  999.0,  999.0,  999.0,  999.0,  999.0,  999.0,  999.0,  999.0,  999.0
2006/04/01 10:50,    3.2,    3.3,    3.6,    5.1,    6.9,    6.6,    7.7,    9.3,    9.2,    8.5,   10.7,  999.0,  999.0,    6.5,  999.0,    0.2,    7.6,   -0.6,  999.0,    0.3,  999.0,  999.0,  999.0,   -0.0,  999.0,  999.0,  999.0,  999.0,  999.0,    3.8
2006/04/01 11:00,    4.4,    3.9,    4.7,    4.9,    7.4,    8.9,    8.2,    7.4,    6.9,    6.6,  999.0,    8.4,    4.6,    5.0,    4.6,    0.9,  999.0,  999.0,  999.0,  999.0,  999.0,  999.0,  999.0,    0.2,   -0.0,  999.0,  999.0,  999.0,  999.0,    3.2
2006/04/01 11:10,    2.3,    3.0,    3.2,    5.0,    6.7,    6.4,    7.4,    7.2,    7.5,    7.6,    7.4,    7.7,    7.6,    7.0,    3.7,    5.4,  999.0,    1.1,    2.1,    0.5,  999.0,  999.0,  999.0,   -0.4,   -0.8,  999.0,  999.0,  999.0,  999.0,    2.7
2006/04/01 11:20,  999.0,    2.6,    4.1,    5.0,    6.5,    7.0,    8.3,    9.2,    8.7,    8.6,    9.1,    8.7,    5.0,   -0.1,    1.8,    0.5,  999.0,  999.0,  999.0,    0.2,  999.0,  999.0,  999.0,  999.0,  999.0,  999.0,  999.0,  999.0,  999.0,    3.7
2006/04/01 11:30,    2.5,    3.8,    4.2,    6.3,    6.6,    6.8,    7.7,    8.6,    9.2,    8.4,    9.9,    9.2,    9.0,   -0.2,    4.0,    5.2,  999.0,  999.0,   -0.3,    1.5,  999.0,  999.0,  999.0,  999.0,    0.5,  999.0,  999.0,  999.0,  999.0,  999.0
2006/04/01 11:40,    0.7,    4.9,    5.8,    4.5,    6.1,    7.2,    7.4,    8.1,    7.9,    8.3,    8.6,    9.2,    7.4,    7.2,    1.6,    0.9,  999.0,    2.9,    5.1,    1.1,    0.1,  999.0,    0.1,  999.0,   -1.8,  999.0,  999.0,  999.0,  999.0,    0.7
2006/04/01 11:50,    5.3,    2.4,    6.8,    4.7,    5.2,    7.1,    7.5,    7.5,    7.6,    7.8,    9.1,    9.6,    7.6,    8.1,    4.8,    1.5,  999.0,    2.6,  999.0,    0.8,  999.0,  999.0,  999.0,  999.0,  999.0,  999.0,  999.0,  999.0,  999.0,  999.0
2006/04/01 12:00,    3.9,    3.1,    3.4,    5.7,    5.6,    6.2,    7.3,    7.6,    8.9,    8.5,    9.0,    8.5,    7.2,    0.9,    1.1,    0.1,  999.0,   -1.1,   -1.3,  999.0,  999.0,  999.0,  999.0,  999.0,    0.2,  999.0,  999.0,  999.0,  999.0,  999.0
2006/04/01 12:10,    5.1,    5.2,    5.9,    6.2,    6.9,    7.2,    6.1,    8.1,    8.5,    8.1,    8.4,    8.2,  999.0,  999.0,  999.0,   -0.7,  999.0,    4.1,    0.4,   -0.6,  999.0,  999.0,    0.2,   -0.8,    0.5,  999.0,  999.0,  999.0,  999.0,  999.0
2006/04/01 12:20,    3.5,    5.7,    5.7,    6.2,    6.9,    6.6,    7.3,    9.2,    9.2,    9.3,    9.7,    8.0,    5.1,   -0.0,    1.0,   -1.0,  999.0,    0.7,  999.0,   -0.1,  999.0,  999.0,   -0.2,    1.5,    1.9,  999.0,  999.0,  999.0,  999.0,  999.0
2006/04/01 12:30,    4.3,    4.7,    4.9,    6.7,    6.6,    7.6,    7.9,    8.0,    8.4,    8.0,   10.8,    9.1,    7.3,    0.2,    1.2,    1.4,  999.0,   -0.0,  999.0,  999.0,  999.0,  999.0,  999.0,    1.9,    0.5,  999.0,  999.0,  999.0,  999.0,  999.0
2006/04/01 12:40,    4.2,    5.6,    4.9,    5.9,    6.7,    7.7,    7.7,    8.2,    8.6,    9.2,   10.3,  999.0,  999.0,    0.9,    0.8,  999.0,  999.0,  999.0,  999.0,   -0.5,  999.0,  999.0,  999.0,  999.0,    0.3,  999.0,  999.0,  999.0,  999.0,  999.0
2006/04/01 12:50,    4.8,    5.7,    4.9,    5.8,    6.9,    7.0,    7.4,    8.1,    8.9,  999.0,  999.0,    9.6,    6.8,  999.0,  999.0,  999.0,  999.0,    0.8,    0.1,    0.7,  999.0,  999.0,  999.0,   -0.3,  999.0,  999.0,  999.0,  999.0,  999.0,  999.0
2006/04/01 13:00,    3.1,    3.3,    3.7,    6.3,    5.8,    6.2,    7.2,    7.9,    8.0,   10.3,  999.0,  999.0,    6.1,    4.1,   -0.4,  999.0,  999.0,   -0.2,  999.0,    0.2,  999.0,  999.0,   -0.3,  999.0,    0.1,  999.0,  999.0,  999.0,  999.0,  999.0
2006/04/01 13:10,    4.8,    5.9,    5.5,    6.1,    6.6,    7.9,    7.9,    8.8,    9.1,    9.3,   10.3,    9.6,    7.2,    1.1,  999.0,    0.4,  999.0,   -0.7,    0.1,   -1.2,  999.0,  999.0,  999.0,    0.8,  999.0,  999.0,  999.0,  999.0,  999.0,  999.0
2006/04/01 13:20,    2.7,    4.5,    5.7,    3.9,    6.4,    6.1,    7.6,    8.0,    6.3,    7.5,    8.2,  999.0,    0.7,    0.9,   -0.3,    0.4,  999.0,    0.6,    0.3,    0.5,  999.0,  999.0,   -0.2,  999.0,    0.6,  999.0,  999.0,  999.0,  999.0,  999.0
2006/04/01 13:30,    3.3,    3.3,    5.4,    5.8,    6.2,    7.8,    7.8,    8.7,    9.6,  999.0,    9.0,  999.0,  999.0,    1.6,    0.9,    1.4,   -1.1,  999.0,  999.0,  999.0,    1.2,  999.0,   -0.1,    0.3,  999.0,  999.0,  999.0,  999.0,  999.0,    2.4
2006/04/01 13:40,    4.3,    4.7,    4.5,    5.5,    5.7,    6.4,    6.3,    7.0,  999.0,    8.7,    7.8,    9.2,  999.0,    1.5,    1.0,   -0.1,  999.0,   -0.7,   -0.9,    0.7,   -1.2,  999.0,   -0.8,   -0.5,  999.0,  999.0,  999.0,  999.0,  999.0,  999.0
2006/04/01 13:50,    2.7,    4.9,    4.9,    6.2,    6.0,    6.9,  999.0,    7.2,    8.2,    9.1,    8.9,    9.4,  999.0,    0.3,   -0.5,    0.0,  999.0,   -1.0,  999.0,   -0.8,  999.0,  999.0,  999.0,   -0.7,    0.6,  999.0,  999.0,  999.0,  999.0,  999.0
2006/04/01 14:00,    2.1,    4.6,    5.9,    6.0,    5.3,    6.4,    9.2,    7.6,    8.1,    8.3,    8.2,  999.0,    1.2,    0.7,    0.2,    0.3,  999.0,    0.7,   -0.2,    0.7,  999.0,  999.0,    0.1,    0.4,   -0.3,  999.0,  999.0,  999.0,  999.0,  999.0
2006/04/01 14:10,    1.7,    3.5,    5.2,    4.7,    5.5,    6.3,    6.7,    6.4,    7.4,    7.6,    8.2,  999.0,  999.0,  999.0,  999.0,    1.0,  999.0,   -1.0,  999.0,   -0.3,    0.3,  999.0,   -0.0,    1.4,    0.8,  999.0,  999.0,  999.0,  999.0,  999.0
2006/04/01 14:20,    2.7,    4.6,    2.6,    3.8,    4.2,    4.5,    6.2,    7.1,    6.8,    8.2,    8.7,    8.6,    0.2,    0.0,    2.0,    0.1,  999.0,  999.0,    0.1,   -0.5,    0.1,  999.0,   -0.1,   -0.2,   -0.5,  999.0,  999.0,  999.0,  999.0,  999.0
2006/04/01 14:30,    2.8,    3.5,    3.5,    4.3,    4.9,    5.4,    6.8,    8.8,    8.6,    9.6,   10.0,  999.0,  999.0,  999.0,    1.6,    1.2,  999.0,  999.0,   -0.1,   -0.7,  999.0,   -1.3,  999.0,   -0.0,    0.0,  999.0,  999.0,  999.0,  999.0,  999.0
2006/04/01 14:40,    1.6,    1.6,    3.4,    4.0,    5.0,    4.8,    6.2,    7.7,    8.6,    9.3,    8.5,  999.0,    2.8,    0.1,    1.4,    1.4,    2.6,    0.1,    0.8,   -0.9,  999.0,  999.0,    0.1,  999.0,  999.0,  999.0,  999.0,  999.0,  999.0,    0.3
2006/04/01 14:50,    3.3,    4.1,    4.7,    4.4,    4.7,    7.0,    6.4,    7.7,    8.7,    9.1,    8.2,  999.0,    5.4,  999.0,  999.0,    0.1,  999.0,   -0.5,  999.0,    0.8,   -0.6,    0.5,    0.3,  999.0,    1.2,  999.0,  999.0,  999.0,  999.0,  999.0
2006/04/01 15:00,    2.5,    2.1,    4.2,    3.3,    4.2,    5.6,    6.8,    7.1,    8.6,    6.6,  999.0,    7.7,  999.0,    0.5,    1.3,    0.4,  999.0,   -0.0,  999.0,    0.5,  999.0,  999.0,    0.7,    0.3,   -3.2,  999.0,  999.0,  999.0,  999.0,  999.0
2006/04/01 15:10,    2.0,    4.8,    4.8,    3.2,    4.6,    6.0,    7.7,    6.0,    6.5,    6.1,    5.1,  999.0,  999.0,    0.1,    1.0,   -0.2,  999.0,    0.4,    1.4,    0.2,  999.0,  999.0,   -0.4,  999.0,   -2.6,  999.0,  999.0,  999.0,  999.0,  999.0
2006/04/01 15:20,    2.7,    2.0,    2.0,    2.6,    5.0,    6.5,    8.4,    9.0,    8.9,  999.0,  999.0,  999.0,  999.0,  999.0,  999.0,  999.0,  999.0,  999.0,  999.0,  999.0,  999.0,  999.0,  999.0,  999.0,  999.0,  999.0,  999.0,  999.0,  999.0,  999.0
2006/04/01 15:30,    0.7,    3.0,    3.1,    2.9,    4.1,    5.7,    6.3,    6.8,    6.8,    7.9,    8.6,  999.0,    5.7,    0.4,    0.7,   -1.0,  999.0,    3.8,    0.6,    0.1,  999.0,  999.0,  999.0,  999.0,   -0.8,  999.0,  999.0,  999.0,  999.0,  999.0
2006/04/01 15:40,    2.3,    1.7,    3.3,    2.6,    3.9,    4.4,    6.9,    8.0,    8.9,   10.8,    9.3,   10.4,    8.2,    5.9,    6.3,    2.9,  999.0,  999.0,  999.0,  999.0,  999.0,  999.0,  999.0,   -0.6,  999.0,  999.0,  999.0,  999.0,  999.0,  999.0
2006/04/01 15:50,    1.7,    1.9,    2.0,    3.6,    3.5,    4.9,    6.9,    7.1,    7.1,    9.0,    9.8,    8.5,    8.8,    9.8,    7.1,    9.6,   11.1,  999.0,   -0.3,   -0.1,  999.0,  999.0,  999.0,  999.0,    1.4,  999.0,  999.0,  999.0,  999.0,  999.0
2006/04/01 16:00,    4.1,    6.1,    4.9,    4.4,    5.4,    9.0,    6.0,    7.0,    8.5,   10.2,   14.1,   10.7,    9.4,    6.7,    5.8,    9.3,  999.0,  999.0,    6.9,    0.1,  999.0,  999.0,  999.0,    0.5,    1.4,  999.0,  999.0,  999.0,  999.0,  999.0
2006/04/01 16:10,    3.6,    5.2,    5.3,    4.9,    2.9,    3.0,    4.8,    7.2,    6.2,    7.4,    7.7,    8.4,    8.7,    8.6,    6.1,    5.7,    8.6,    1.2,    0.1,  999.0,  999.0,  999.0,  999.0,   -0.7,    1.1,  999.0,  999.0,  999.0,  999.0,  999.0
2006/04/01 16:20,    2.1,    2.4,    5.0,    5.6,    5.7,    6.4,    8.9,    6.2,    5.5,    6.9,    8.2,    8.1,    6.9,    5.4,    3.9,    1.3,   10.7,  999.0,   -0.0,  999.0,  999.0,  999.0,  999.0,   -0.5,  999.0,  999.0,  999.0,  999.0,  999.0,  999.0
2006/04/01 16:30,    2.4,    1.9,    3.1,    3.7,    5.4,    6.5,    6.3,    7.4,    7.1,    7.0,    7.8,    8.2,   10.0,    5.0,    0.9,    1.4,  999.0,  999.0,    1.1,   -0.3,  999.0,  999.0,  999.0,    0.3,  999.0,  999.0,  999.0,  999.0,  999.0,  999.0
2006/04/01 16:40,    2.1,   -1.1,    2.2,    3.2,    4.6,    4.8,    5.3,    6.7,    7.7,    9.0,    7.6,    8.7,  999.0,  999.0,    0.1,  999.0,  999.0,  999.0,  999.0,  999.0,  999.0,  999.0,  999.0,   -0.0,  999.0,  999.0,  999.0,  999.0,  999.0,    3.0
2006/04/01 16:50,    1.5,    0.2,    3.6,    5.0,    4.9,    3.5,    5.2,    4.9,    5.8,    7.2,    7.9,    8.8,  999.0,  999.0,  999.0,  999.0,  999.0,  999.0,  999.0,    1.2,  999.0,  999.0,  999.0,    0.9,   -0.5,  999.0,  999.0,  999.0,  999.0,  999.0
2006/04/01 17:00,    3.0,    3.7,    1.4,    3.3,    3.6,    5.3,    7.0,    9.8,   12.5,    7.8,    9.1,    7.4,    8.3,   15.7,   -1.0,   11.7,   10.7,  999.0,  999.0,    0.8,  999.0,   -0.9,  999.0,  999.0,    0.1,  999.0,  999.0,  999.0,  999.0,  999.0
2006/04/01 17:10,    2.6,    5.6,    4.7,    4.8,    6.8,    7.6,    8.1,    6.1,    5.4,    0.9,    5.5,    6.3,    4.1,    5.8,   11.8,   10.1,    5.2,    3.1,   -0.1,  999.0,  999.0,  999.0,  999.0,  999.0,    0.6,  999.0,  999.0,  999.0,  999.0,  999.0
2006/04/01 17:20,    2.3,    4.4,    3.6,    4.8,    6.2,    7.5,    7.7,    7.9,    8.6,  999.0,  999.0,    6.8,    8.1,    7.8,    2.9,    3.0,  999.0,    5.1,  999.0,  999.0,    0.1,  999.0,  999.0,    0.8,  999.0,  999.0,  999.0,  999.0,  999.0,  999.0
2006/04/01 17:30,    3.9,    4.2,    4.7,    5.0,    6.6,    6.6,    4.7,    9.2,   10.6,    8.1,    8.5,  999.0,    9.2,  999.0,   -0.3,    1.0,  999.0,  999.0,   -0.5,    0.7,    0.1,  999.0,  999.0,    0.0,   -0.4,  999.0,  999.0,  999.0,  999.0,  999.0
2006/04/01 17:40,    4.9,    4.5,    3.2,    4.8,    5.4,    6.8,    8.0,    9.0,    8.7,    9.5,    9.2,  999.0,  999.0,  999.0,    1.1,    0.3,  999.0,  999.0,  999.0,    0.7,  999.0,  999.0,  999.0,    0.2,   -0.3,  999.0,  999.0,  999.0,  999.0,  999.0
2006/04/01 17:50,    3.1,    4.8,    5.2,    5.8,    6.7,    7.1,    9.1,   10.6,    8.8,    9.5,   11.2,    8.8,    7.5,    2.5,    0.1,   -0.4,  999.0,  999.0,    0.2,   -0.1,  999.0,    0.8,    1.2,   -0.6,   -0.9,  999.0,  999.0,  999.0,  999.0,  999.0
2006/04/01 18:00,    2.6,    4.2,    4.8,    5.8,    7.5,    7.2,    9.3,    8.5,    8.7,    8.4,    8.0,    7.2,  999.0,  999.0,    1.7,    2.6,  999.0,    0.1,    0.1,    0.4,  999.0,  999.0,   -0.2,    0.3,    0.5,  999.0,  999.0,  999.0,  999.0,  999.0
2006/04/01 18:10,    2.6,    3.3,    4.2,    5.3,    6.1,    7.6,    7.8,    7.1,    7.5,    8.6,    8.3,    9.6,  999.0,  999.0,  999.0,    1.7,  999.0,    2.6,  999.0,    0.4,  999.0,  999.0,  999.0,    1.6,    3.1,  999.0,  999.0,  999.0,  999.0,  999.0
2006/04/01 18:20,    2.9,    3.7,    4.2,    5.1,    5.6,    5.5,    4.1,    6.0,    5.5,    7.8,    8.1,    9.8,  999.0,  999.0,  999.0,  999.0,  999.0,  999.0,  999.0,   -0.7,  999.0,  999.0,  999.0,    0.5,  999.0,  999.0,  999.0,  999.0,  999.0,  999.0
2006/04/01 18:30,    2.4,    4.1,    4.7,    4.8,    5.3,    5.9,    7.1,    6.6,    7.8,    7.4,    8.7,  999.0,  999.0,  999.0,  999.0,  999.0,  999.0,  999.0,  999.0,  999.0,  999.0,    5.6,    6.0,    2.2,    0.2,  999.0,  999.0,  999.0,  999.0,  999.0
2006/04/01 18:40,    3.4,    5.0,    2.3,    4.6,    6.4,    6.1,    6.3,    5.8,    7.2,    8.0,    9.2,    9.8,  999.0,  999.0,  999.0,  999.0,  999.0,  999.0,  999.0,    3.8,  999.0,  999.0,  999.0,  999.0,  999.0,  999.0,  999.0,  999.0,  999.0,  999.0
2006/04/01 18:50,  999.0,    7.0,    3.3,    2.9,    3.9,    7.1,    6.0,    7.9,    8.9,    9.8,  999.0,  999.0,   11.0,  999.0,    0.2,   -0.0,  999.0,  999.0,    8.4,  999.0,  999.0,  999.0,  999.0,  999.0,    0.0,  999.0,  999.0,  999.0,  999.0,  999.0
2006/04/01 19:00,    3.6,    3.3,  999.0,  999.0,    3.7,    2.5,    4.2,    1.9,   10.8,  999.0,    8.0,  999.0,  999.0,    9.1,    5.4,  999.0,  999.0,  999.0,    8.0,    6.1,  999.0,  999.0,  999.0,  999.0,  999.0,  999.0,  999.0,  999.0,  999.0,  999.0
2006/04/01 19:10,    1.7,    2.9,    3.5,    4.8,    4.6,    6.7,    6.9,    5.4,    7.5,    7.6,  999.0,  999.0,  999.0,  999.0,  999.0,  999.0,  999.0,  999.0,    4.4,    4.8,    7.1,    9.4,    9.1,    4.2,    1.3,  999.0,  999.0,  999.0,  999.0,  999.0
2006/04/01 19:20,    2.8,  999.0,    4.4,    3.7,    3.5,    3.6,    6.9,    8.0,    9.2,  999.0,  999.0,  999.0,  999.0,  999.0,  999.0,  999.0,  999.0,    8.4,    7.9,  999.0,  999.0,   10.1,  999.0,   -1.5,    0.7,  999.0,  999.0,  999.0,  999.0,  999.0
2006/04/01 19:30,    0.5,  999.0,  999.0,  999.0,    5.6,    6.7,    8.1,    8.9,    7.7,    4.0,  999.0,  999.0,  999.0,    9.7,   10.5,  999.0,  999.0,  999.0,    7.9,  999.0,  999.0,  999.0,  999.0,   -1.5,  999.0,  999.0,  999.0,  999.0,  999.0,  999.0
2006/04/01 19:40,    4.7,    3.3,    5.8,    4.7,    6.7,    6.9,   10.5,    6.2,    9.1,    9.8,  999.0,  999.0,  999.0,    9.4,    8.8,    8.1,  999.0,  999.0,  999.0,  999.0,  999.0,  999.0,  999.0,   -0.3,    2.9,  999.0,  999.0,  999.0,  999.0,  999.0
2006/04/01 19:50,    3.7,    5.0,    3.4,    3.5,    5.1,    6.4,    8.0,    7.6,    7.7,    8.1,    8.3,   10.1,  999.0,  999.0,  999.0,  999.0,  999.0,  999.0,  999.0,  999.0,  999.0,  999.0,  999.0,   -0.2,    0.1,  999.0,  999.0,  999.0,  999.0,  999.0
2006/04/01 20:00,    2.1,    5.8,    3.5,    2.9,    3.2,    1.6,    6.2,    6.9,    7.6,    8.0,  999.0,  999.0,  999.0,  999.0,  999.0,  999.0,  999.0,  999.0,  999.0,  999.0,  999.0,  999.0,  999.0,  999.0,  999.0,  999.0,  999.0,  999.0,  999.0,  999.0
2006/04/01 20:10,    3.3,    3.1,    3.9,    3.6,    5.3,    5.4,    5.7,    7.2,    6.5,    8.1,    7.9,    8.7,    7.7,  999.0,  999.0,    6.1,    6.4,    6.7,  999.0,  999.0,  999.0,  999.0,  999.0,  999.0,    1.4,  999.0,  999.0,  999.0,  999.0,  999.0
2006/04/01 20:20,    2.6,    3.6,    3.5,    4.3,    4.9,    5.6,    5.9,    6.7,    6.8,    7.8,    8.6,  999.0,  999.0,  999.0,    7.9,  999.0,  999.0,    7.1,    6.4,  999.0,  999.0,  999.0,  999.0,    0.6,   -0.1,  999.0,  999.0,  999.0,  999.0,  999.0
2006/04/01 20:30,    1.9,    1.1,    2.5,    2.3,    4.2,    5.0,    6.6,    7.3,    7.4,    6.4,    7.9,    7.4,    7.4,  999.0,  999.0,  999.0,  999.0,    9.5,  999.0,  999.0,    8.2,  999.0,  999.0,  999.0,    0.1,  999.0,  999.0,  999.0,  999.0,  999.0
2006/04/01 20:40,    1.7,    2.9,    2.1,    3.6,    4.3,    5.0,    6.5,    6.7,    8.1,    7.8,  999.0,    8.4,  999.0,  999.0,    8.2,    6.1,  999.0,  999.0,  999.0,    8.5,    6.8,  999.0,  999.0,    0.7,    1.1,  999.0,  999.0,  999.0,  999.0,  999.0
2006/04/01 20:50,    2.3,    3.0,    3.4,    3.7,    4.9,    7.9,    8.0,    6.6,    8.1,    8.3,    6.0,  999.0,  999.0,    2.1,    7.8,  999.0,  999.0,  999.0,  999.0,  999.0,  999.0,  999.0,  999.0,    1.3,    1.2,  999.0,  999.0,  999.0,  999.0,  999.0
2006/04/01 21:00,    3.8,    2.6,  999.0,    3.1,    4.0,    9.1,    8.2,    7.5,    6.9,    7.2,    7.6,  999.0,    9.1,    6.6,  999.0,  999.0,    8.6,    8.2,    9.1,  999.0,  999.0,  999.0,  999.0,    1.1,    1.2,  999.0,  999.0,  999.0,  999.0,  999.0
2006/04/01 21:10,    1.5,    2.9,  999.0,    4.0,    7.2,  999.0,    5.4,    6.9,    7.1,    6.8,  999.0,  999.0,  999.0,  999.0,  999.0,    8.2,  999.0,    7.0,    8.4,    8.1,    6.7,    5.1,  999.0,  999.0,    0.4,    2.5,  999.0,  999.0,  999.0,  999.0
2006/04/01 21:20,    2.6,    0.7,    2.8,    3.1,    2.6,    6.6,    4.3,    6.7,    6.9,    8.0,    6.9,  999.0,    6.8,    8.7,  999.0,  999.0,    7.5,    7.8,    7.4,    5.5,    7.8,  999.0,    6.2,  999.0,    2.4,  999.0,  999.0,  999.0,  999.0,  999.0
2006/04/01 21:30,  999.0,    1.1,    2.4,    2.6,    3.0,    5.9,    5.1,    6.8,  999.0,    7.9,    8.4,    7.5,  999.0,    7.7,    7.9,    7.6,    7.8,    8.2,    7.3,    6.9,    7.2,    6.8,  999.0,  999.0,  999.0,  999.0,  999.0,  999.0,  999.0,  999.0
2006/04/01 21:40,    2.3,    2.6,    1.9,    2.5,    2.5,    4.9,    6.1,    5.1,    6.3,    6.9,    6.1,    6.9,    8.8,    7.4,    8.6,    9.3,    9.5,    8.4,    7.9,    7.1,    6.9,    6.7,    6.0,    5.5,    5.0,    7.6,    6.4,  999.0,  999.0,  999.0
2006/04/01 21:50,    4.4,    2.1,  999.0,    3.3,    4.9,    5.2,    5.5,    4.8,    6.3,    6.2,    6.4,    7.2,    7.3,    6.8,    8.0,    8.1,    7.9,    8.2,    6.0,    6.3,    6.8,    7.1,    6.1,    5.6,  999.0,    7.2,  999.0,    6.8,  999.0,  999.0
2006/04/01 22:00,    2.0,    4.7,    1.2,    4.3,    3.0,    3.7,    6.3,    6.6,    5.6,    6.1,    6.4,    5.7,    6.0,    6.5,    6.5,    6.2,    6.6,  999.0,  999.0,  999.0,  999.0,  999.0,  999.0,  999.0,    3.3,  999.0,  999.0,    8.8,    8.0,  999.0
2006/04/01 22:10,    1.7,    3.6,    3.3,    4.7,    6.3,    6.7,    7.4,    6.6,    7.0,    6.1,    7.0,    7.0,    6.2,    6.3,    5.5,    6.0,    5.3,  999.0,    5.1,    5.1,    3.4,  999.0,    4.6,    3.1,    1.9,    5.0,    7.2,    7.9,  999.0,    6.3
2006/04/01 22:20,    2.1,    3.6,    5.0,    4.0,    9.2,    7.1,    5.8,    7.1,    7.1,    7.1,    9.3,    7.3,    6.9,    6.6,    5.6,    5.7,    7.0,    3.1,    4.4,    4.1,    1.8,  999.0,    3.5,    4.2,    1.6,    5.6,  999.0,    6.8,    6.1,    6.4
2006/04/01 22:30,    2.2,    2.6,    2.5,  999.0,    3.7,    7.4,    6.2,    6.0,    7.2,    7.5,  999.0,  999.0,    5.3,    5.1,    6.9,    8.5,    7.2,    6.4,  999.0,  999.0,    3.6,    3.5,    4.6,    3.1,  999.0,  999.0,  999.0,  999.0,    4.9,    6.0
2006/04/01 22:40,  999.0,    3.5,    0.7,  999.0,    5.1,    0.2,    6.7,    6.1,    6.0,    5.7,    8.4,    8.2,    8.3,    7.8,    8.6,    8.5,    7.8,    8.5,    6.4,    7.8,    8.9,  999.0,  999.0,   -0.1,    0.8,  999.0,  999.0,  999.0,    4.1,  999.0
2006/04/01 22:50,    3.1,    4.1,    2.9,    4.6,    5.7,    3.0,    6.6,    7.3,    9.3,    9.2,    8.0,    7.4,    8.2,    8.4,    8.1,    8.2,    8.5,    8.2,    9.1,    8.6,    9.8,    9.2,  999.0,    1.7,    0.7,  999.0,  999.0,  999.0,  999.0,    4.0
2006/04/01 23:00,    2.5,    4.7,    3.4,    3.3,  999.0,    4.7,  999.0,  999.0,  999.0,    7.1,    6.1,    6.8,    6.8,    7.1,    7.3,    7.8,    8.6,  999.0,  999.0,  999.0,   10.0,    9.0,  999.0,    5.1,    2.3,  999.0,  999.0,  999.0,  999.0,    2.8
2006/04/01 23:10,    2.9,    3.1,    2.8,    2.8,    4.8,    4.5,    5.8,    6.5,    7.0,    7.8,    7.7,    8.0,    8.7,    8.4,    8.5,    9.0,    9.4,  999.0,   10.8,    9.9,    8.8,    7.9,  999.0,  999.0,    6.8,  999.0,  999.0,  999.0,    6.7,    5.1
2006/04/01 23:20,    2.6,    3.1,    4.0,   -3.1,    0.7,    4.7,    6.4,    6.1,    6.8,    8.3,    9.6,  999.0,    9.1,    8.4,    8.9,    9.2,    9.6,    7.7,    7.6,    7.6,    8.2,    7.9,    7.0,    6.5,    4.9,    5.8,  999.0,  999.0,  999.0,  999.0
2006/04/01 23:30,    2.8,    3.8,    3.8,    5.0,    6.6,  999.0,    8.3,    9.9,    6.5,    9.7,  999.0,    8.2,  999.0,    7.8,    9.1,    9.9,    7.8,  999.0,  999.0,  999.0,   10.0,    8.3,    6.7,    5.2,    3.3,    5.0,    3.6,    5.7,  999.0,  999.0
2006/04/01 23:40,    1.1,    2.5,    4.6,    6.0,    6.8,    9.5,   10.3,  999.0,    8.6,    4.9,    6.4,    6.7,    7.9,    6.4,    6.9,    6.8,    8.3,  999.0,  999.0,  999.0,  999.0,  999.0,  999.0,  999.0,  999.0,  999.0,    1.3,  999.0,    3.3,  999.0
2006/04/01 23:50,    2.6,   -8.0,    3.2,    4.9,    6.5,    9.0,    4.6,    5.6,    5.5,    7.2,    7.1,    7.1,    7.2,    6.7,    6.2,    6.5,    6.9,  999.0,  999.0,  999.0,  999.0,  999.0,  999.0,  999.0,  999.0,  999.0,  999.0,  999.0,  999.0,  999.0
